Weather in Belovo

Russia / Kemerovo Oblast     54°25′19″N   86°18′13″E
temp.,
°C
wind,
m/s
gust,
m/s
humid.,
%
clouds,
%
prec.,
mm/h
press.,
hPa
HPBL,
m
24 january, mon
mon2401:00−15wsw1197100 0.2 103531
04:00−13nw1296100 0.6 1035114
07:00−17nw119967 0.9 10369
10:00−22wnw11100100 0.0 10389
13:00−16wsw119692 0.1 103997
16:00−15sse11955 0.0 103810
19:00−22se1110087 0.0 10409
22:00−24sse2110096 0.0 10409
25 january, tue
tue2501:00−24sse11100100 0.1 104011
04:00−26sse2210042 0.0 10399
07:00−27sse2210052 0.0 10389
10:00−26sse22100100 0.0 103816
13:00−15s1291100 0.0 1035149
16:00−13ssw1390100 0.0 1034248
19:00−15ssw2296100 0.0 103447
22:00−18ssw2397100 0.0 103436
26 january, wed
wed2601:00−20s2298100 0.0 103414
04:00−21sse229873 0.0 103414
07:00−24se2299100 0.0 103410
10:00−20se2296100 0.0 103444
13:00−14sse3487100 0.0 1032234
16:00−11sse3586100 0.0 1031378
19:00−13sse3791100 0.0 1031146
22:00−12sse3693100 0.3 1032224
27 january, thu
thu2701:00−13sse359486 0.3 1032114
04:00−19se229917 0.0 103413
07:00−21se2210066 0.0 103610
10:00−21se2210084 0.0 103716
13:00−11sse24905 0.0 1036175
16:00−11ese239228 0.0 103755
19:00−19se2210058 0.0 10399
22:00−23sse1110090 0.0 10419
28 january, fri
fri2801:00−25sse1110095 0.0 10419
04:00−26sse1110097 0.0 10419
07:00−26ese1110097 0.0 10429
10:00−26ese1110099 0.0 10429
13:00−16ene119574 0.0 104086
16:00−14n11945 0.0 103916
19:00−22nnw1110059 0.0 10409
22:00−26w1110084 0.0 10409